Regional Weather Roundup
Issued by NWS Cleveland, OH

Home | Current Version | Previous Version | Graphics & Text | Print | Product List | Glossary On
Versions: 1 2 3 4 5 6 7 8 9 10 11 12 13 14 15 16 17 18 19 20 21 22 23 24 25 26 27 28 29 30 31 32 33 34 35 36 37 38 39 40 41 42 43 44 45 46 47 48 49 50
000
ASUS41 KCLE 221000
RWRCLE
OHIO REGIONAL WEATHER ROUNDUP
NATIONAL WEATHER SERVICE WILMINGTON, OH
600 AM EDT MON SEP 22 2014

NOTE: "FAIR" INDICATES FEW OR NO CLOUDS BELOW 12,000 FEET WITH NO
SIGNIFICANT WEATHER AND/OR OBSTRUCTIONS TO VISIBILITY.

OHZ001>008-015>018-024>027-034-035-043-044-221100-
   NORTHWEST OHIO

CITY           SKY/WX    TMP DP  RH WIND       PRES   REMARKS
DEFIANCE       CLOUDY   N/A N/A N/A N12       30.15R
FINDLAY        CLOUDY    49  39  68 N14       30.11R
TOLEDO EXPRESS CLOUDY    47  39  74 NW7       30.12R
TOLEDO METCALF CLOUDY    49  37  63 NW15      30.13R
LIMA           CLOUDY    48  40  73 N10       30.12R
$$

OHZ009>014-019>023-028>033-038-089-221100-
   NORTHEAST OHIO

CITY           SKY/WX    TMP DP  RH WIND       PRES   REMARKS
CLE-HOPKINS    CLOUDY    52  42  69 NW14      30.06R
CLE-LAKEFRONT  CLOUDY    55  43  63 NW18G25   30.02R
CUY CO. ARPT   NOT AVBL
LORAIN-ELYRIA  CLOUDY    54  41  61 N10       30.07R
ASHTABULA      CLOUDY    51  48  89 N9        30.01R
AKRON-CANTON   CLOUDY    52  43  71 NW12      30.03R
WOOSTER        NOT AVBL
MANSFIELD      CLOUDY    48  46  93 NW9       30.07R
YOUNGSTOWN     CLOUDY    51  46  83 NW13      30.00R
$$

OHZ042-051>053-060>062-070>072-077>081-221100-
  SOUTHWEST OHIO

CITY           SKY/WX    TMP DP  RH WIND       PRES   REMARKS
CINC-COVINGTON MOCLDY    51  46  83 N5        30.12R
CINC-LUNKEN    CLEAR     50  43  77 NW3       30.14R
HAMILTON       CLEAR     47  43  86 NW7       30.13R
DAYTON         NOT AVBL
WRIGHT-PAT AFB MOCLDY    49  43  79 NW7       30.11R
DAYTON GENERAL CLOUDY    48  43  82 N9        30.10R
WILMINGTON     CLEAR     49  44  83 N8        30.10R
$$

OHZ036-037-039>041-045>050-054>059-063>069-073>076-082>088-221100-
  CENTRAL AND SOUTHEAST OHIO

CITY           SKY/WX    TMP DP  RH WIND       PRES   REMARKS
COLUMBUS       CLOUDY    55  46  71 N17       30.06R
OSU AIRPORT    CLOUDY    50  43  77 N12       30.08R
BOLTON FIELD   NOT AVBL
RICKENBACK AFB NOT AVBL
NEWARK         CLOUDY    53  48  83 N3        30.06R
MARION         CLOUDY    49  42  77 N13       30.09R
LANCASTER      CLOUDY    53  48  83 CALM      30.07R
ZANESVILLE     CLOUDY    51  48  89 N5        30.05R
NEW PHILLY     CLOUDY    51  49  92 NW7       30.05R
$$



USA.gov is the U.S. government's official web portal to all federal, state and local government web resources and services.